RH
76 78 78 78 78 78 77 78 80 79 77 76 75 75 76 76 76 76 76 79 79 78 79 80 80 81 54 26 13 19 48 31 24 27 26 28 26 26 22 22 25 25 25 26 27 28 30
75 77 77 78 79 79 77 77 79 79 78 76 76 77 78 77 77 79 79 80 80 79 80 81 80 84 37 20 15 16 20 21 22 25 24 27 28 29 33 26 31 25 27 27 22 26 24
73 74 76 78 78 79 78 78 79 79 79 77 77 77 80 78 77 77 80 78 79 80 81 81 79 46 29 20 18 17 20 23 24 26 28 27 30 35 30 26 23 27 33 22 23 26 29
71 73 74 77 78 78 79 79 79 79 79 78 77 76 80 82 82 82 82 78 78 80 82 81 78 37 24 21 17 17 18 23 25 27 30 33 36 40 37 24 23 25 24 27 25 29 30
73 73 74 74 77 78 78 78 79 79 79 78 77 76 77 82 85 86 84 74 74 79 78 76 47 34 18 29 17 18 22 24 25 30 35 32 38 31 24 18 15 16 29 29 30 27 28
76 76 75 75 76 78 78 78 78 78 78 78 77 80 82 84 85 86 80 63 74 70 48 36 26 30 16 19 22 23 22 25 27 30 31 31 30 23 14 19 25 29 31 30 34 33 32
78 78 79 78 77 77 78 77 76 77 78 79 81 82 83 84 85 80 52 34 23 29 21 27 27 22 20 22 25 22 24 24 24 22 21 26 24 22 21 23 26 26 31 29 30 29 29
83 81 81 81 79 78 78 78 77 77 77 80 82 82 82 84 83 75 33 33 47 50 38 29 32 30 26 26 22 21 22 24 22 21 21 25 20 20 23 24 22 23 27 31 31 28 24
86 84 83 84 82 80 79 79 78 77 77 80 83 82 83 83 76 48 44 52 48 48 45 26 28 28 23 27 22 23 25 26 24 20 23 18 19 21 20 16 24 23 29 34 39 32 28
90 88 86 86 85 83 82 81 80 78 82 85 82 82 84 78 48 39 49 51 50 49 39 18 20 24 22 25 24 25 27 30 22 23 21 18 16 22 16 17 24 26 28 36 39 33 33
92 91 90 89 89 87 84 82 81 80 85 85 83 82 82 72 39 33 52 49 52 53 82 18 20 21 18 23 25 27 26 25 24 21 22 24 20 26 19 21 26 25 33 35 36 29 28
93 92 92 91 90 89 87 85 82 83 85 84 83 83 81 47 39 51 51 52 53 52 92 30 20 20 16 20 20 17 20 20 22 21 19 19 22 25 19 25 27 25 28 29 29 33 50
95 94 93 92 91 90 89 86 85 85 85 83 82 82 62 45 41 49 51 43 51 46 15 21 24 20 19 21 18 19 21 22 23 46 32 20 17 17 24 24 25 26 27 46 44 52 43
96 96 94 93 92 92 89 88 85 84 84 82 82 70 64 49 49 52 45 26 59 19 18 24 24 18 19 20 18 18 16 19 22 21 26 33 47 18 20 31 40 33 33 42 36 34 30
97 97 97 96 95 93 91 89 86 85 85 81 80 38 42 48 53 49 31 50 39 18 25 26 18 17 16 18 18 15 16 21 27 23 24 24 26 19 22 26 33 29 34 30 36 24 30
98 98 97 97 96 95 94 92 90 86 84 75 42 37 34 50 51 46 31 50 25 22 29 25 19 17 18 15 16 14 15 24 30 26 22 21 29 20 21 22 27 25 23 33 34 39 32
90 96 97 97 97 97 96 95 91 93 79 69 47 43 44 45 46 32 43 35 22 22 29 26 21 19 16 18 20 15 15 27 27 27 23 24 26 24 25 22 22 28 26 27 27 29 32
94 94 95 94 97 98 97 96 95 92 78 58 48 62 45 43 41 33 34 24 48 30 30 30 30 25 21 19 20 18 18 18 26 24 22 25 26 34 26 20 20 26 24 24 39 30 26
95 94 93 96 98 98 98 97 96 91 76 52 60 49 42 41 56 41 29 26 32 30 27 28 28 30 25 24 23 20 20 29 27 23 21 24 30 40 31 28 28 32 25 23 26 34 40
95 96 94 96 96 98 98 98 97 90 79 56 50 70 48 37 40 31 33 28 27 34 32 29 28 30 30 28 25 24 25 30 31 25 54 40 31 35 40 33 27 29 26 26 30 47 38
95 96 96 97 98 97 98 98 97 91 84 57 55 67 45 53 39 32 32 32 31 31 36 32 31 32 28 24 26 26 25 25 27 38 39 36 40 41 34 31 32 34 35 34 40 36 42
95 96 96 97 97 97 97 98 96 92 82 67 67 53 41 41 38 47 48 43 37 33 26 30 32 23 27 29 21 25 25 27 28 31 34 39 44 44 53 42 41 48 41 38 38 36 35
94 96 96 96 96 97 98 98 96 91 78 75 59 45 40 55 46 46 54 51 40 34 28 26 29 30 33 31 28 27 26 25 26 32 36 41 46 53 59 44 46 53 46 39 36 47 43
93 95 96 96 97 97 98 98 95 90 77 58 58 52 65 80 66 58 42 40 38 34 33 28 31 31 32 37 41 44 48 50 48 44 34 45 52 54 62 52 68 63 55 53 45 54 54
91 94 96 97 97 97 98 98 96 90 82 70 77 64 77 82 57 56 48 44 42 36 36 32 30 31 42 46 48 53 54 58 54 47 48 51 53 60 67 54 40 71 67 61 59 60 56
93 89 95 97 97 98 98 99 96 92 85 83 88 85 90 91 76 47 52 54 72 55 50 44 52 47 48 50 54 90 74 58 65 61 49 53 50 57 59 67 48 61 60 51 55 65 57
92 90 92 95 97 97 98 99 97 94 89 85 90 80 93 94 70 39 50 56 48 69 92 59 60 60 54 55 76 86 77 60 86 58 61 65 63 71 68 65 50 57 55 56 75 71 56
88 89 92 95 97 98 98 98 98 95 92 88 92 81 84 91 77 66 69 69 76 75 92 73 76 71 67 93 96 83 85 66 68 53 53 51 57 61 56 61 67 56 64 75 69 55 54
89 90 91 96 97 98 98 98 98 96 93 87 97 85 91 92 96 75 71 66 70 75 75 83 80 70 68 95 93 89 88 63 57 64 60 64 55 66 59 65 61 54 59 54 53 55 57
Wind_Speed
9 10 11 11 11 12 12 12 11 12 12 13 14 15 16 16 16 16 16 15 15 13 13 11 9 7 6 6 2 7 3 1 3 2 6 8 8 8 10 12 11 7 12 15 15 14 12
8 9 9 10 11 12 12 12 13 12 12 13 14 15 16 17 17 17 17 16 15 14 12 9 6 6 5 5 4 4 2 3 3 5 5 5 6 8 9 13 7 14 15 15 7 8 11
7 8 9 10 11 11 12 13 12 14 15 16 16 17 16 18 18 19 17 17 15 13 9 6 5 5 5 3 3 3 2 4 2 3 6 3 5 6 11 11 9 10 10 8 5 12 8
6 7 8 10 11 11 12 13 14 14 14 15 17 18 19 20 21 20 18 17 10 4 2 3 4 4 3 2 2 1 1 1 2 1 2 3 3 6 4 11 10 7 3 11 12 11 9
5 6 8 9 10 11 12 12 13 15 15 17 19 20 21 21 22 21 16 8 2 3 5 6 5 4 2 3 1 3 4 4 1 2 1 1 3 4 8 12 8 9 11 13 8 14 11
4 5 6 8 9 10 11 12 13 14 15 16 17 18 18 19 21 20 16 3 4 5 4 3 2 4 2 4 5 3 2 3 3 2 3 3 3 5 11 10 10 14 12 12 10 10 11
5 5 6 7 8 9 10 11 11 13 14 15 17 18 19 19 19 18 10 4 4 4 4 5 7 4 2 7 2 0 3 3 3 6 5 2 4 9 13 10 10 10 11 8 7 4 12
5 5 6 6 7 7 9 11 12 13 14 15 17 18 20 18 16 16 7 6 5 4 7 1 3 4 2 3 3 3 6 5 3 4 3 5 7 8 9 4 13 5 12 8 6 4 4
7 7 7 7 7 7 7 9 11 12 14 16 17 19 21 19 9 3 9 7 6 3 6 1 2 2 2 4 3 5 9 3 4 4 7 4 5 8 7 8 15 3 9 9 6 5 7
9 8 8 8 8 8 8 8 9 11 12 13 16 17 20 22 2 4 4 5 4 3 4 3 2 3 1 4 2 3 4 3 2 5 5 3 4 6 12 9 11 6 12 8 9 10 3
10 10 9 9 7 7 7 9 9 10 11 12 14 17 16 11 6 3 5 5 1 4 0 3 2 1 2 3 5 2 2 3 5 5 5 4 5 7 12 7 8 6 11 7 8 6 6
12 11 11 10 9 8 8 8 9 9 11 11 12 15 17 3 1 3 5 4 3 3 2 3 3 4 4 2 2 5 1 2 2 3 2 3 1 3 7 11 3 12 6 7 7 7 3
12 12 12 11 10 10 9 8 8 8 9 12 13 12 7 4 4 6 5 4 3 3 1 4 4 6 5 4 1 5 4 7 6 4 6 6 2 2 5 10 4 14 1 3 3 2 4
12 13 13 12 12 11 10 9 8 7 9 10 13 7 2 3 6 7 4 4 2 2 3 1 3 8 4 6 2 3 2 0 5 7 5 6 4 5 8 4 6 8 4 3 5 4 5
12 12 12 12 12 12 11 10 8 6 9 11 13 2 3 2 5 5 5 3 3 2 2 7 10 5 2 1 4 4 3 2 3 6 6 5 4 1 2 2 5 5 3 1 5 2 5
9 10 11 11 12 13 13 11 8 5 7 7 5 4 1 5 5 4 3 3 2 1 2 2 4 2 5 7 6 3 1 3 2 2 4 3 7 3 2 2 1 5 3 3 3 3 3
11 10 11 11 11 11 12 11 10 7 4 5 3 5 3 5 3 4 3 2 3 2 3 3 3 6 6 7 4 5 1 4 1 2 3 3 3 1 3 2 3 3 1 0 4 4 4
11 11 12 10 10 10 11 11 10 8 3 2 2 4 3 3 4 1 4 2 1 3 3 4 4 5 6 4 6 5 3 2 2 1 3 3 5 5 8 2 2 3 3 5 4 3 3
11 11 11 10 9 9 11 12 12 10 7 2 2 3 1 2 4 4 1 2 3 3 4 3 4 5 1 3 5 4 3 3 2 2 3 1 3 5 5 4 3 5 5 5 5 4 11
11 12 11 10 9 9 10 12 13 13 10 2 1 3 2 1 1 4 5 4 4 4 4 4 3 3 3 5 7 4 4 3 3 2 2 2 7 11 9 8 3 8 8 8 9 7 7
12 11 12 11 11 10 10 12 15 15 10 2 0 3 4 2 5 6 2 2 6 5 5 5 4 10 6 5 4 6 5 4 5 2 3 5 7 10 13 16 14 15 16 15 15 15 10
13 13 12 11 11 10 11 13 17 18 13 1 4 3 1 3 2 4 6 5 9 6 5 6 10 5 9 8 8 4 3 3 6 4 3 3 5 4 8 17 16 16 15 14 15 16 18
13 12 12 12 11 11 11 15 21 24 13 3 0 1 2 2 2 4 5 6 8 3 8 7 6 5 8 10 6 5 6 8 8 4 6 4 4 4 6 1 8 14 11 13 6 3 6
12 13 12 13 12 12 11 16 22 25 13 3 3 3 2 3 5 7 4 2 7 7 12 3 5 4 1 0 3 5 5 7 10 12 10 8 7 6 8 8 7 4 4 2 5 2 2
13 13 13 13 14 12 12 17 24 27 22 3 3 4 4 4 5 3 10 4 1 4 6 10 5 2 2 1 3 7 3 3 4 1 5 11 10 5 5 6 7 4 1 1 3 4 3
15 14 13 13 14 13 13 16 23 26 25 3 2 2 3 3 7 4 4 5 4 6 5 5 1 1 1 2 2 5 5 2 2 4 1 5 10 7 2 5 6 6 4 3 1 5 5
17 15 14 15 15 15 15 17 23 25 25 9 3 4 4 3 4 4 5 6 5 4 3 2 4 4 3 6 5 7 6 2 5 5 6 5 5 12 10 7 1 3 1 1 4 4 4
17 16 15 15 15 15 16 19 22 25 25 11 2 7 6 4 2 4 3 4 2 5 5 3 2 5 4 6 5 5 6 7 3 4 4 9 7 6 5 6 9 1 4 5 4 4 2
18 18 17 16 15 15 17 20 23 25 27 19 3 5 2 1 1 2 3 4 5 2 5 6 3 3 4 5 4 2 4 4 6 4 2 5 2 0 2 2 6 6 8 5 3 3 2
Wind_Direction
36 33 29 26 25 22 21 20 16 12 6 356 350 346 340 337 330 323 319 315 311 305 302 295 296 312 279 235 12 109 124 233 263 266 297 321 314 338 331 337 325 280 311 315 305 309 293
32 33 28 25 22 19 16 14 8 6 1 353 348 345 340 335 328 322 320 315 307 303 295 282 269 292 254 266 78 66 338 280 297 279 307 302 329 333 289 317 301 329 314 295 320 309 317
21 21 21 18 17 16 11 10 6 1 357 352 348 345 337 331 328 326 322 318 312 306 293 250 223 232 243 345 60 11 358 354 330 312 301 329 314 296 335 316 341 299 301 308 55 8 356
12 10 9 12 11 8 8 4 1 360 357 351 348 346 341 335 330 328 325 326 318 337 82 167 197 230 292 109 6 186 345 150 48 90 294 327 300 293 275 295 256 269 242 352 29 9 348
350 356 357 0 5 3 3 3 360 357 355 353 349 344 343 338 332 326 327 329 49 84 124 152 197 259 106 127 258 7 353 339 221 158 102 108 289 306 282 328 324 4 332 1 3 30 339
319 333 341 346 354 357 357 358 357 355 353 351 345 338 338 337 333 326 330 275 143 180 185 215 248 237 141 18 338 332 7 320 255 212 225 242 245 289 0 357 351 327 330 338 12 12 39
297 310 319 331 342 346 348 348 350 351 349 344 340 337 336 338 337 330 333 235 266 174 21 14 332 294 5 345 211 282 357 261 237 242 339 58 336 10 351 345 329 303 300 357 46 347 66
269 286 299 309 319 327 335 340 343 345 344 342 340 336 335 338 338 320 352 52 37 336 312 156 299 279 291 337 272 36 323 283 271 337 323 214 38 2 339 329 317 325 312 24 117 344 340
246 257 265 274 283 299 320 331 335 337 340 340 340 337 335 335 328 10 62 42 333 296 265 68 15 344 5 309 2 356 346 324 323 321 2 7 17 327 350 358 347 2 350 332 320 300 256
238 246 258 265 280 296 309 317 325 332 334 335 336 338 337 325 334 345 60 355 320 302 258 66 83 84 291 317 186 355 4 333 240 333 350 28 339 337 348 17 352 304 353 308 297 283 357
236 240 242 254 258 274 289 303 317 324 326 332 338 338 336 356 321 14 341 323 319 233 111 49 79 49 320 329 325 90 8 254 333 337 292 21 344 354 359 3 339 341 331 308 303 297 317
235 236 239 244 248 253 268 289 305 315 320 327 333 337 327 281 272 22 318 297 223 243 309 16 322 349 322 41 48 320 294 183 323 275 275 16 34 324 338 317 276 309 291 271 278 287 265
237 237 236 236 239 242 248 263 281 301 312 324 332 333 333 297 330 327 302 235 301 341 108 19 340 343 327 341 79 14 8 37 10 332 359 335 101 98 343 325 213 6 254 277 271 280 327
244 240 237 235 233 236 240 245 262 287 310 323 325 319 338 342 322 317 257 258 342 61 15 19 290 299 301 349 87 354 306 339 55 346 309 332 312 17 20 36 317 335 354 326 298 304 349
247 246 246 240 233 231 233 235 246 283 312 328 305 286 265 21 322 303 281 308 317 24 357 331 306 280 175 165 308 311 20 34 43 7 347 328 320 116 26 335 332 353 18 0 285 243 289
260 257 254 251 243 236 228 222 228 264 299 333 318 304 282 337 321 267 273 287 310 355 306 276 300 352 311 345 308 292 210 90 135 349 333 28 290 155 62 235 219 344 339 233 198 275 277
268 258 253 254 253 241 234 224 196 234 269 329 283 305 65 339 284 242 266 279 285 228 238 235 288 284 287 314 295 304 333 130 183 164 277 302 239 245 204 197 326 202 327 264 287 282 300
249 251 253 243 245 243 233 215 200 196 223 286 337 259 39 320 284 267 243 194 10 230 199 242 280 285 279 306 278 280 292 360 104 288 293 35 309 280 298 43 264 279 307 303 291 161 252
257 245 250 249 244 230 227 212 196 180 195 118 162 277 94 275 261 223 129 246 268 243 245 205 229 226 249 268 276 245 245 113 145 235 329 94 230 294 173 171 166 234 219 273 278 296 250
256 255 248 240 236 227 225 210 185 174 177 140 191 276 173 176 118 295 267 243 239 200 242 236 273 237 215 246 233 282 261 160 178 236 11 278 254 246 270 322 348 268 242 227 256 259 269
255 254 250 243 230 225 221 200 181 162 163 228 313 233 332 221 200 234 307 357 238 231 221 222 221 234 217 265 240 235 250 245 196 186 221 242 255 257 269 283 282 271 265 265 252 239 265
259 253 253 246 236 224 215 193 173 153 138 68 157 190 188 2 236 137 163 231 254 236 224 218 234 257 225 238 250 297 265 214 267 160 235 222 277 308 277 260 262 276 265 253 247 254 254
257 255 258 250 239 227 209 188 171 154 164 158 154 4 288 155 169 214 211 211 242 210 234 264 232 235 228 245 276 285 283 287 278 259 226 250 274 293 278 77 295 271 273 239 247 336 306
245 249 250 254 241 230 209 189 178 172 184 140 162 127 165 239 201 217 256 202 247 228 280 286 234 227 76 149 271 252 242 255 259 243 238 246 236 258 278 290 238 72 25 295 229 117 146
249 240 246 248 245 230 209 191 184 185 185 127 159 145 145 220 197 273 239 229 19 284 258 264 224 36 131 30 294 312 229 238 197 167 250 236 237 261 255 247 301 182 156 111 231 159 180
258 248 241 245 243 225 210 195 190 192 190 137 138 120 123 136 225 225 173 199 208 224 254 228 142 150 132 218 187 238 234 268 223 176 70 208 230 227 184 262 263 57 109 16 343 232 128
251 243 241 243 243 233 207 195 193 196 190 173 169 178 103 187 228 162 196 195 169 131 242 278 183 170 223 210 219 229 235 147 226 232 170 156 197 220 231 256 166 87 51 317 235 67 105
256 243 237 239 240 232 212 198 194 193 185 176 172 193 172 199 216 209 184 155 98 167 187 144 124 224 180 190 224 192 225 204 228 225 187 189 190 197 214 237 253 43 151 226 88 98 102
258 248 238 230 232 231 215 202 195 191 184 182 164 167 137 116 35 356 55 12 341 44 185 198 243 200 171 197 205 203 209 211 231 233 180 211 288 145 307 6 91 54 77 84 46 75 71